CZ-3B DEB, 40164

Orbit data source: Space-Track

CZ-3B DEB, 40164 is space debris in HEO originally from a launch on Sat, 04 Sep 2010 UTC launched from the Xichang Space Center, China (XSC). Debris objects in space refer to the collection of defunct objects orbiting the Earth. Examples of debris include non-operational satellites, rocket bodies, and fragments generated from explosions, collisions, or faulty payload assembly.

Loading next visibility...
Identifier
40164, 2010-042R
Orbit
HEO
Country
Flag of CNCN / PRC
Related business
Manufacturer
CALT
Mission
Spacecraft
Bus & Motor
Unknown
Mass
Unknown
Launch date (UTC)
2010-09-04 (15 years ago)
Launch vehicle
Unknown
Launch site
Xichang Space Center, China (XSC)
Object type
Payload
Rocket body
Debris
Shape & HBR
Unknown shape, 0.3 m
Radar Cross Section
Medium (>0.1 m² and <1 m²)

Expand to show TLE details & history
Last TLE update: 10 hours ago

TLE from 10 hours ago
0 CZ-3B DEB
1 40164U 10042R   26036.17732944  .00000006  00000-0  00000-0 0  9992
2 40164  27.1492 269.0049 7270189 327.3532 284.5589  1.89872045 84750
Epoch: 2026-02-05T04:15Z
TLE epoch observation values (Epoch: 2026-02-05T04:15:21.263Z)
Latitude
1.57551°
Longitude
-113.14716°
Altitude
29,180.507 km
Speed
2.82 km/s
True Right ascension
05h 44m 05s
True Declination
1° 34' 25"
Sunlit
Object was in daylight at epoch
Visualization orbit readout
Latitude
Unknown
Longitude
Unknown
Altitude
Unknown
Speed
Unknown
Apparent Right ascension
Unknown
Apparent Declination
Unknown
Sunlit
N/A
Visualization observer readout
Local Sidereal Time
16:13:23
Azimuth
Unknown
Elevation
Unknown
Doppler factor
Unknown
Orbital elements
Apogee altitude
41,204.158 km
Perigee altitude
1,142.955 km
Semi-major axis
27,551.694 km
Eccentricity
0.72702
Inclination
27.1492°
RAAN
269.0049°
Arg. of periapsis
327.3532°
True anomaly
209.16108°
Mean anomaly
284.5589°
Eccentric anomaly
246.39048°
Mean motion
0.47459 °/min
Orbital period
758.55 mins
BSTAR
0
Loading maneuver chart data...
Computing Atmospheric mass density...
Loading historical data...
Loading historical data...
Loading historical data...
Loading historical data...
Loading historical data...
Loading historical data...
Loading historical data...

Documentation

Showing up to 5 results
|